sat.trackr.live / text

‹ back to catalog

STARLINK-36602

NORAD 67849 · 2026-033AE

PAYLOAD ACTIVE UNKNOWN

§ Identity

Operator
Country
US
Launch date
2026-02-16
Launch site
AFETR
Launch vehicle
Mass (kg)
RCS (m²)

Purposes: comms

External: N2YO · Heavens-Above · Gunter

§ Orbital elements

Epoch: 2026-05-25T03:45:41.446080Z

Period
94.27 min
Inclination
43.0002°
Eccentricity
0.0001488
Mean motion
15.27601250 rev/d
Perigee alt
482.0 km
Apogee alt
484.0 km
Semi-major
6,861.1 km
B*
1.2403e-3
RAAN
195.6397°
Arg perigee
270.1609°
Mean anomaly
89.9072°
Rev number
1,636

§ Raw data

STARLINK-366021 67849U 26033AE  26145.15672970  .00034048  00000+0  12403-2 0  99932 67849  43.0002 195.6397 0001488 270.1609  89.9072 15.27601250 16361

JSON: /api/v1/satellites/67849 · /tle

For live sub-satellite position, see the globe view (requires WebGL).

§ Visibility from observer

Set your observer location to see the next 7 days of passes ≥ 10°. The values pass through the URL so the page stays shareable.

No JS? Fill the form by hand. The geolocation button needs JavaScript.